KE8GJZ-1 Weather Reports


time (UTC)temp
C
wind
direction
speed
KPH
gust
KPH
rain 1hr
cm
rain 24hr
cm
rain mn
cm
humidity
%
barometer
mb
20260507013045 8 264 0.0 0.0 0.00 0.00 0.00 52 1011.2
20260507012543 8 264 0.0 0.0 0.00 0.00 0.00 53 1011.1
20260507012038 8 264 0.0 0.0 0.00 0.00 0.00 54 1011.1
20260507011536 8 264 0.0 0.0 0.00 0.00 0.00 55 1010.8
20260507011032 9 265 0.0 0.0 0.00 0.00 0.00 52 1010.8
20260507010526 9 284 0.0 0.0 0.00 0.00 0.00 52 1010.9
20260507010023 9 227 0.0 0.0 0.00 0.00 0.00 52 1011.1
20260507005521 9 238 0.0 0.0 0.00 0.00 0.00 50 1010.9
20260507005017 9 306 1.6 1.6 0.00 0.00 0.00 50 1011.0
20260507004514 10 229 0.0 0.0 0.00 0.00 0.00 53 1011.0
20260507004012 10 243 0.0 0.0 0.00 0.00 0.00 50 1011.1
20260507003507 10 245 0.0 0.0 0.00 0.00 0.00 49 1010.9
20260507003002 10 240 0.0 0.0 0.00 0.00 0.00 50 1010.9
20260507002459 10 266 0.0 0.0 0.00 0.00 0.00 49 1011.0
20260507001955 10 271 0.0 0.0 0.00 0.00 0.00 48 1010.7
20260507001452 10 230 0.0 0.0 0.00 0.00 0.00 47 1010.8
20260507000949 10 251 0.0 0.0 0.00 0.00 0.00 48 1010.8
20260507000445 10 253 0.0 0.0 0.00 0.00 0.00 47 1010.7
20260506235940 10 234 0.0 0.0 0.00 0.00 0.00 45 1010.7
20260506235438 10 262 0.0 0.0 0.00 0.00 0.00 45 1010.9
20260506234933 10 238 0.0 0.0 0.00 0.00 0.00 46 1010.8
20260506234432 11 262 0.0 0.0 0.00 0.00 0.00 44 1010.7
20260506233929 11 323 0.0 0.0 0.00 0.00 0.00 45 1010.8
20260506233425 11 258 0.0 0.0 0.00 0.00 0.00 44 1010.8
20260506232922 11 186 0.0 1.6 0.00 0.00 0.00 42 1010.9
20260506232418 11 97 0.0 1.6 0.00 0.00 0.00 43 1010.7
20260506231914 11 182 0.0 1.6 0.00 0.00 0.00 43 1010.5
20260506231412 11 233 0.0 0.0 0.00 0.00 0.00 45 1010.6
20260506230909 11 275 0.0 1.6 0.00 0.00 0.00 44 1010.8
20260506230405 11 239 0.0 0.0 0.00 0.00 0.00 46 1010.6
20260506225902 11 239 0.0 0.0 0.00 0.00 0.00 45 1010.4
20260506225359 11 279 0.0 0.0 0.00 0.00 0.00 45 1010.3
20260506224856 11 278 0.0 0.0 0.00 0.00 0.00 44 1010.4
20260506224354 11 207 0.0 0.0 0.00 0.00 0.00 45 1010.6
20260506223849 11 284 0.0 0.0 0.00 0.00 0.00 42 1010.5
20260506223345 11 275 0.0 0.0 0.00 0.00 0.00 44 1010.6
20260506222842 11 196 0.0 0.0 0.00 0.00 0.00 43 1010.5
20260506222338 11 188 0.0 0.0 0.00 0.00 0.00 42 1010.4
20260506221836 11 271 0.0 1.6 0.00 0.00 0.00 45 1010.6
20260506221333 12 235 0.0 0.0 0.00 0.00 0.00 43 1010.2
20260506220831 12 285 0.0 0.0 0.00 0.00 0.00 43 1010.5
20260506220326 12 260 0.0 1.6 0.00 0.00 0.00 42 1010.8
20260506215823 12 307 0.0 0.0 0.00 0.00 0.00 42 1010.5
20260506215319 12 294 0.0 0.0 0.00 0.00 0.00 45 1010.8
20260506214815 12 188 0.0 1.6 0.00 0.00 0.00 44 1010.6
20260506214311 12 212 0.0 0.0 0.00 0.00 0.00 42 1010.4
20260506213810 12 200 0.0 0.0 0.00 0.00 0.00 43 1010.5
20260506213307 12 284 0.0 0.0 0.00 0.00 0.00 43 1010.5
20260506212804 12 227 0.0 0.0 0.00 0.00 0.00 44 1010.4
20260506212300 12 16 0.0 1.6 0.00 0.00 0.00 44 1010.5
20260506211755 12 324 1.6 3.2 0.00 0.00 0.00 43 1010.5
20260506211251 12 300 1.6 1.6 0.00 0.00 0.00 42 1010.5
20260506210749 12 166 1.6 1.6 0.00 0.00 0.00 43 1010.7
20260506210245 12 271 0.0 0.0 0.00 0.00 0.00 43 1010.4
20260506205742 12 220 0.0 1.6 0.00 0.00 0.00 44 1010.4
20260506205238 12 160 0.0 1.6 0.00 0.00 0.00 41 1010.6
20260506204735 12 230 0.0 0.0 0.00 0.00 0.00 44 1010.5
20260506204232 12 281 1.6 3.2 0.00 0.00 0.00 44 1010.5
20260506203731 13 171 1.6 3.2 0.00 0.00 0.00 41 1010.7
20260506203227 12 231 0.0 0.0 0.00 0.00 0.00 41 1010.4
20260506202725 12 177 0.0 0.0 0.00 0.00 0.00 43 1010.6
20260506202221 12 286 0.0 0.0 0.00 0.00 0.00 43 1010.9
20260506201718 12 290 0.0 0.0 0.00 0.00 0.00 42 1010.6
20260506201215 12 279 0.0 0.0 0.00 0.00 0.00 43 1010.6
20260506200712 12 296 0.0 0.0 0.00 0.00 0.00 41 1010.8
20260506200209 12 295 0.0 0.0 0.00 0.00 0.00 40 1010.8
20260506195705 13 278 1.6 3.2 0.00 0.00 0.00 41 1010.5
20260506195201 13 178 0.0 0.0 0.00 0.00 0.00 39 1010.7
20260506194659 12 298 1.6 1.6 0.00 0.00 0.00 42 1011.0
20260506194155 12 286 1.6 3.2 0.00 0.00 0.00 42 1010.8
20260506193653 13 73 0.0 0.0 0.00 0.00 0.00 40 1010.9
20260506193149 12 29 0.0 1.6 0.00 0.00 0.00 43 1010.8
20260506192646 12 184 0.0 1.6 0.00 0.00 0.00 43 1010.8
20260506192142 12 280 0.0 0.0 0.00 0.00 0.00 41 1010.9
20260506191640 12 154 3.2 3.2 0.00 0.00 0.00 42 1011.0
20260506191135 13 246 0.0 0.0 0.00 0.00 0.00 42 1011.1
20260506190633 12 230 0.0 0.0 0.00 0.00 0.00 43 1011.2
20260506190130 12 160 0.0 1.6 0.00 0.00 0.00 45 1011.1
20260506185627 12 325 0.0 1.6 0.00 0.00 0.00 43 1011.3
20260506185123 12 255 0.0 0.0 0.00 0.00 0.00 46 1011.0
20260506184620 11 249 0.0 0.0 0.00 0.00 0.00 43 1010.9
20260506184118 12 317 1.6 1.6 0.00 0.00 0.00 43 1010.9
20260506183614 12 184 0.0 1.6 0.00 0.00 0.00 42 1010.9
20260506183110 12 23 1.6 3.2 0.00 0.00 0.00 45 1011.0
20260506182608 12 200 0.0 1.6 0.00 0.00 0.00 47 1010.5
20260506182105 11 343 1.6 3.2 0.00 0.00 0.00 42 1010.8
20260506181603 11 223 0.0 1.6 0.00 0.00 0.00 41 1010.7
20260506181059 12 264 0.0 0.0 0.00 0.00 0.00 41 1010.8
20260506180556 12 212 0.0 0.0 0.00 0.00 0.00 45 1010.8
20260506180053 12 85 0.0 0.0 0.00 0.00 0.00 46 1011.0
20260506175549 12 149 4.8 4.8 0.00 0.00 0.00 43 1010.8
20260506175045 12 243 0.0 0.0 0.00 0.00 0.00 46 1010.7
20260506174544 11 105 0.0 0.0 0.00 0.00 0.00 50 1010.9
20260506174039 12 169 1.6 1.6 0.00 0.00 0.00 45 1010.8
20260506173538 11 320 1.6 1.6 0.00 0.00 0.00 50 1011.2
20260506173034 11 175 1.6 1.6 0.00 0.00 0.00 48 1011.3
20260506172532 11 147 1.6 1.6 0.00 0.00 0.00 48 1011.3
20260506172028 10 325 1.6 3.2 0.00 0.00 0.00 50 1011.3
20260506171525 10 151 1.6 1.6 0.00 0.00 0.00 49 1011.7
20260506171023 11 240 0.0 0.0 0.00 0.00 0.00 50 1011.4
20260506170520 11 307 3.2 3.2 0.00 0.00 0.00 47 1011.3
20260506170012 11 287 3.2 3.2 0.00 0.00 0.00 49 1011.0
20260506165510 11 145 0.0 0.0 0.00 0.00 0.00 49 1011.4
20260506165006 11 269 0.0 1.6 0.00 0.00 0.00 47 1011.3
20260506164503 12 247 0.0 0.0 0.00 0.00 0.00 48 1011.2
20260506164001 11 25 0.0 0.0 0.00 0.00 0.00 49 1011.2
20260506163456 11 302 0.0 0.0 0.00 0.00 0.00 50 1011.2
20260506162950 10 284 1.6 1.6 0.00 0.00 0.00 52 1011.1
20260506162449 11 301 0.0 1.6 0.00 0.00 0.00 52 1011.3
20260506161945 11 291 0.0 0.0 0.00 0.00 0.00 53 1011.2
20260506161443 11 334 3.2 3.2 0.00 0.00 0.00 51 1011.1
20260506160940 11 297 0.0 1.6 0.00 0.00 0.00 52 1011.1
20260506160438 11 289 0.0 1.6 0.00 0.00 0.00 48 1011.5
20260506155935 11 325 1.6 3.2 0.00 0.00 0.00 53 1011.2
20260506155432 11 184 0.0 1.6 0.00 0.00 0.00 50 1011.2
20260506153554 11 112 3.2 3.2 0.00 0.00 0.00 49 1011.1
20260506153052 12 252 1.6 3.2 0.00 0.00 0.00 50 1010.8
20260506152548 12 286 1.6 1.6 0.00 0.00 0.00 48 1011.0
20260506152046 13 308 1.6 1.6 0.00 0.00 0.00 48 1010.8
20260506151544 12 250 1.6 1.6 0.00 0.00 0.00 49 1010.9
20260506151041 12 331 1.6 1.6 0.00 0.00 0.00 51 1011.0
20260506150537 12 176 0.0 0.0 0.00 0.00 0.00 50 1010.9
20260506150035 11 51 1.6 1.6 0.00 0.00 0.00 51 1010.8
20260506145531 11 292 1.6 3.2 0.00 0.00 0.00 49 1010.6
20260506145029 11 205 0.0 1.6 0.00 0.00 0.00 51 1010.7
20260506144525 11 327 1.6 1.6 0.00 0.00 0.00 51 1010.7
20260506144023 11 112 1.6 1.6 0.00 0.00 0.00 53 1010.6
20260506143520 11 40 0.0 0.0 0.00 0.00 0.00 51 1010.6
20260506143019 11 343 3.2 3.2 0.00 0.00 0.00 51 1010.4
20260506142516 12 305 0.0 0.0 0.00 0.00 0.00 50 1010.3
20260506142014 12 221 0.0 0.0 0.00 0.00 0.00 47 1010.4
20260506141512 12 146 1.6 1.6 0.00 0.00 0.00 49 1009.9
20260506141010 11 158 3.2 3.2 0.00 0.00 0.00 50 1010.5
20260506140507 11 281 0.0 0.0 0.00 0.00 0.00 49 1010.2
20260506140004 11 311 1.6 1.6 0.00 0.00 0.00 51 1010.2
20260506135500 12 358 0.0 0.0 0.00 0.00 0.00 47 1009.9
20260506134956 11 290 1.6 3.2 0.00 0.00 0.00 55 1009.8
20260506134453 10 165 1.6 1.6 0.00 0.00 0.00 52 1009.8
20260506133949 10 297 1.6 1.6 0.00 0.00 0.00 50 1009.9
20260506133446 10 306 0.0 0.0 0.00 0.00 0.00 54 1009.9
20260506132943 10 282 0.0 0.0 0.00 0.00 0.00 55 1010.1
20260506132440 10 307 0.0 1.6 0.00 0.00 0.00 56 1009.8
20260506131938 9 259 0.0 1.6 0.00 0.00 0.00 56 1009.7
20260506131434 9 218 0.0 0.0 0.00 0.00 0.00 58 1009.7
20260506130931 8 235 0.0 1.6 0.00 0.00 0.00 61 1009.7
20260506130428 8 294 1.6 1.6 0.00 0.00 0.00 60 1009.4
20260506125926 7 269 0.0 0.0 0.00 0.00 0.00 60 1009.5
20260506125424 7 233 0.0 0.0 0.00 0.00 0.00 60 1009.4
20260506124922 7 290 1.6 1.6 0.00 0.00 0.00 62 1009.3
20260506124419 7 339 0.0 1.6 0.00 0.00 0.00 63 1009.2
20260506123917 7 304 0.0 1.6 0.00 0.00 0.00 65 1009.4
20260506123414 6 276 0.0 0.0 0.00 0.00 0.00 64 1009.5
20260506122912 6 244 0.0 0.0 0.00 0.00 0.00 66 1009.2
20260506122408 6 320 0.0 0.0 0.00 0.00 0.00 67 1009.0
20260506121907 6 300 0.0 0.0 0.00 0.00 0.00 67 1009.1
20260506121403 6 102 0.0 0.0 0.00 0.00 0.00 68 1008.9
20260506120900 5 269 0.0 1.6 0.00 0.00 0.00 70 1009.0
20260506120358 5 239 0.0 0.0 0.00 0.00 0.00 70 1008.7
20260506115855 5 232 0.0 0.0 0.00 0.00 0.00 70 1008.6
20260506115353 5 202 0.0 0.0 0.00 0.00 0.00 72 1008.9
20260506114851 5 283 0.0 0.0 0.00 0.00 0.00 70 1008.9
20260506114348 5 277 0.0 0.0 0.00 0.00 0.00 72 1008.6
20260506113847 5 278 0.0 0.0 0.00 0.00 0.00 72 1009.0
20260506113344 5 248 0.0 0.0 0.00 0.00 0.00 75 1009.0
20260506112840 5 242 0.0 0.0 0.00 0.00 0.00 76 1008.5
20260506112338 5 232 0.0 0.0 0.00 0.00 0.00 76 1008.6
20260506111835 5 231 0.0 0.0 0.00 0.00 0.00 75 1008.3
20260506111333 5 248 0.0 0.0 0.00 0.00 0.00 75 1008.4
20260506110831 5 248 0.0 0.0 0.00 0.00 0.00 75 1008.5
20260506110327 5 247 0.0 0.0 0.00 0.00 0.00 75 1008.3
20260506105824 5 245 0.0 0.0 0.00 0.00 0.00 73 1008.5
20260506105321 5 226 0.0 0.0 0.00 0.00 0.00 73 1008.3
20260506104818 5 225 0.0 0.0 0.00 0.00 0.00 72 1008.1
20260506104316 5 250 0.0 0.0 0.00 0.00 0.00 72 1008.0
20260506103813 5 250 0.0 0.0 0.00 0.00 0.00 70 1008.0
20260506103311 5 249 0.0 0.0 0.00 0.00 0.00 70 1007.7
20260506102808 6 249 0.0 0.0 0.00 0.00 0.00 69 1008.1
20260506102306 6 246 0.0 0.0 0.00 0.00 0.00 69 1007.9
20260506101803 6 275 0.0 0.0 0.00 0.00 0.00 69 1007.7
20260506101259 6 297 0.0 0.0 0.00 0.00 0.00 67 1007.7
20260506100757 6 273 0.0 0.0 0.00 0.00 0.00 67 1007.8
20260506100255 6 275 0.0 0.0 0.00 0.00 0.00 67 1007.8
20260506095753 6 275 0.0 0.0 0.00 0.00 0.00 66 1008.0
20260506095250 6 275 0.0 0.0 0.00 0.00 0.00 67 1007.8
20260506094746 6 256 0.0 0.0 0.00 0.00 0.00 66 1007.7
20260506094245 6 248 0.0 0.0 0.00 0.00 0.00 67 1007.4
20260506093743 6 247 0.0 0.0 0.00 0.00 0.00 66 1007.5
20260506093240 6 286 0.0 0.0 0.00 0.00 0.00 65 1007.3
20260506092738 6 250 0.0 0.0 0.00 0.00 0.00 66 1007.2
20260506092236 6 267 0.0 0.0 0.00 0.00 0.00 66 1007.2
20260506091732 6 246 0.0 0.0 0.00 0.00 0.00 67 1007.0
20260506091230 6 248 0.0 0.0 0.00 0.00 0.00 67 1007.2
20260506090728 7 296 0.0 0.0 0.00 0.00 0.00 67 1007.1
20260506090224 7 297 0.0 0.0 0.00 0.00 0.00 66 1007.4
20260506085721 7 268 0.0 0.0 0.00 0.00 0.00 66 1007.6
20260506085217 7 276 0.0 1.6 0.00 0.00 0.00 66 1007.2
20260506084714 7 237 0.0 0.0 0.00 0.00 0.00 67 1007.0
20260506084210 7 267 0.0 0.0 0.00 0.00 0.00 66 1007.0
20260506083707 7 239 0.0 0.0 0.00 0.00 0.00 66 1007.0
20260506083205 7 304 0.0 0.0 0.00 0.00 0.00 66 1007.1
20260506082702 7 264 0.0 0.0 0.00 0.00 0.00 66 1007.3
20260506082203 7 264 0.0 0.0 0.00 0.00 0.00 69 1007.0
20260506081701 7 298 0.0 0.0 0.00 0.00 0.00 68 1007.1
20260506081158 7 298 0.0 0.0 0.00 0.00 0.00 69 1007.1
20260506080656 7 298 0.0 0.0 0.00 0.00 0.00 68 1007.2
20260506080152 7 33 0.0 0.0 0.00 0.00 0.00 70 1007.0
20260506073136 7 98 0.0 0.0 0.00 0.00 0.00 69 1007.4
20260506072633 7 98 0.0 0.0 0.00 0.00 0.00 69 1007.2
20260506072131 7 98 0.0 0.0 0.00 0.00 0.00 69 1007.3
20260506071628 7 98 0.0 0.0 0.00 0.00 0.00 69 1007.0
20260506071126 7 265 0.0 0.0 0.00 0.00 0.00 69 1007.0
20260506070622 7 265 0.0 0.0 0.00 0.00 0.00 67 1007.2
20260506070120 7 265 0.0 0.0 0.00 0.00 0.00 67 1007.1
20260506062057 7 250 0.0 0.0 0.00 0.00 0.00 65 1007.3
20260506061552 7 264 0.0 0.0 0.00 0.00 0.00 67 1007.1
20260506061050 7 263 0.0 0.0 0.00 0.00 0.00 67 1007.4
20260506060549 7 284 0.0 0.0 0.00 0.00 0.00 65 1007.2
20260506051017 7 292 0.0 0.0 0.00 0.00 0.00 70 1007.2
20260506050515 7 292 0.0 0.0 0.00 0.00 0.00 69 1007.1
20260506045005 7 292 0.0 0.0 0.00 0.00 0.00 69 1007.4
20260506044503 7 292 0.0 0.0 0.00 0.00 0.00 69 1007.3
20260506044000 7 292 0.0 0.0 0.00 0.00 0.00 69 1007.2
20260506043457 8 247 0.0 0.0 0.00 0.00 0.00 70 1007.1
20260506042955 8 247 0.0 0.0 0.00 0.00 0.00 69 1007.1
20260506042449 8 247 0.0 0.0 0.00 0.00 0.00 68 1006.9
20260506041946 8 246 0.0 0.0 0.00 0.00 0.00 67 1007.1
20260506041444 8 313 1.6 1.6 0.00 0.00 0.00 65 1007.1
20260506040941 8 215 0.0 0.0 0.00 0.00 0.00 66 1007.0
20260506040438 8 215 0.0 0.0 0.00 0.00 0.00 67 1006.9
20260506035934 8 296 0.0 0.0 0.00 0.15 0.15 68 1007.1
20260506035432 8 296 0.0 0.0 0.00 0.15 0.15 67 1007.1
20260506034928 8 296 0.0 0.0 0.00 0.15 0.15 68 1006.9
20260506034426 8 240 0.0 0.0 0.00 0.15 0.15 67 1006.9
20260506033923 8 262 0.0 0.0 0.00 0.15 0.15 67 1007.0
20260506033420 8 191 0.0 0.0 0.00 0.15 0.15 62 1007.0
20260506032917 8 286 0.0 0.0 0.00 0.15 0.15 64 1007.0
20260506032414 8 256 0.0 0.0 0.00 0.15 0.15 65 1006.9
20260506031910 8 257 0.0 0.0 0.00 0.15 0.15 64 1007.0
20260506031408 8 257 0.0 0.0 0.00 0.15 0.15 65 1007.1
20260506030905 8 194 0.0 0.0 0.00 0.15 0.15 66 1007.0
20260506030403 8 194 0.0 0.0 0.00 0.15 0.15 62 1007.1
20260506025900 8 194 0.0 0.0 0.00 0.15 0.15 64 1007.2
20260506025356 8 193 0.0 0.0 0.00 0.15 0.15 61 1007.1
20260506024854 8 240 0.0 0.0 0.00 0.15 0.15 61 1006.8
20260506024351 8 285 0.0 0.0 0.00 0.15 0.15 62 1006.8
20260506023846 8 284 0.0 0.0 0.00 0.15 0.15 61 1007.2
20260506023344 8 286 0.0 0.0 0.00 0.15 0.15 61 1007.2
20260506022840 8 270 0.0 0.0 0.00 0.15 0.15 63 1007.2
20260506022338 8 221 0.0 0.0 0.00 0.15 0.15 62 1007.1
20260506021836 8 260 0.0 0.0 0.00 0.15 0.15 61 1007.0
20260506021333 8 260 0.0 0.0 0.00 0.15 0.15 62 1006.8
20260506020829 8 261 0.0 0.0 0.00 0.15 0.15 63 1006.8
20260506020327 8 261 0.0 0.0 0.00 0.15 0.15 60 1006.8
20260506015824 8 260 0.0 0.0 0.00 0.15 0.15 60 1006.9
20260506015322 8 261 0.0 0.0 0.00 0.15 0.15 59 1006.8
20260506014818 8 261 0.0 0.0 0.00 0.15 0.15 60 1006.9
20260506014315 8 243 0.0 0.0 0.00 0.15 0.15 59 1006.7
20260506013812 9 258 0.0 0.0 0.00 0.15 0.15 59 1006.8
20260506013309 9 250 0.0 0.0 0.00 0.15 0.15 58 1006.5